星链-1132 (STARLINK-1132 )

导读 | 豆包AI

STARLINK-1132是美国太空探索技术公司(SpaceX)星链(Starlink)卫星互联网项目的卫星,于2020年1月29日发射升空,属于星链项目早期部署的组网卫星,主要用于为全球范围提供低延迟、高速率的卫星互联网接入服务,依托近地轨道部署,助力实现全球无死角网络覆盖。

基本信息
目录编号:
45044
目录名称:
STARLINK-1132
国际标识:
2020-006A
轨道中心:
EARTH
卫星名称:
星链-1132
卫星全名:
星链-1132 (STARLINK-1132 )
卫星状态:
在轨 (已飞行2236 天)
发射日期:
2020-01-29 UTC
国别 :
美国 (US)
星等 :
--
轨道信息
数据来源 国际轨道数据 AOE轨道数据
星历时间 2026-03-14T04:46:52+0800
14小时前
查看轨道信息
2026-03-13T10:00:00+0800
1天前
查看轨道信息
半长轴 6812.8km 6812.981km
偏心率 0.0003931 0.0003687
轨道倾角 53.155° 53.157°
近地点辐角 218.064° 213.731°
升交点赤经 234.156° 237.869°
平近点角 142.009° 114.596°
近地点 431.984km 432.332km
远地点 437.342km 437.356km
周期 93.271分钟 93.275分钟
每日圈数 15.438829 15.438212
详细信息
固有亮度:
5
最大亮度:
2.5
卫星平台:
Starlink V1.0
覆盖范围:
全球
运营商:
太空探索技术公司
运营商所在国:
美国
制造商(研发单位):
太空探索技术公司
制造商所在国:
美国
使用方式:
暂无
卫星简介
星链(Starlink)计划是由太空探索技术公司(SpaceX)提出的一个巨型低轨卫星互联网星座项目,计划在2019年至2024年间在太空搭建由约1.2万颗卫星组成的“星链”网络,其中1584颗将部署在地球上空550千米处的近地轨道,并从2020年开始工作。该卫星仍在工作。
2D轨道图
3D轨道图
轨道高度分析图
轨道倾角分析图
轨道综合分析图
查看轨道综合分析图